Sturgis, MI

6:45 AM EDT on March 26, 2017 (GMT -0400)
Kirsch Municipal

Weather History for KIRS - July, 2013

Change the Weather History Date:

Tuesday, July 16, 2013

  Actual Average (KHAI) Record (KHAI)
Temperature  
Mean Temperature 81 °F -  
Max Temperature 89 °F 83 °F 96 °F (2012)
Min Temperature 73 °F 59 °F 43 °F (1967)
Cooling Degree Days 16    
Growing Degree Days 31 (Base 50)    
Moisture  
Dew Point 72 °F    
Average Humidity 76    
Maximum Humidity 100    
Minimum Humidity 49    
Precipitation  
Precipitation 0.00 in - - ()
Sea Level Pressure  
Sea Level Pressure 30.31 in    
Wind  
Wind Speed 2 mph (West)    
Max Wind Speed 9 mph    
Max Gust Speed -    
Visibility 10 miles    
Events      
Averages and records for this station are not official NWS values.
T = Trace of Precipitation, MM = Missing Value Source: NWS Daily Summary

Daily Weather History Graph

Daily Weather History Graph

Search for Another Location

Airport or City:

Trip Planner

Search our weather history database for the weather conditions in past years. The results will help you decide how hot, cold, wet, or windy it might be!

Date:

Astronomy

Jul. 16, 2013 Rise Set
Actual Time 6:21 AM EDT 9:14 PM EDT
Civil Twilight 5:48 AM EDT 9:47 PM EDT
Nautical Twilight 5:06 AM EDT 10:28 PM EDT
Astronomical Twilight 4:17 AM EDT 11:17 PM EDT
Moon 2:52 PM EDT (7/16) 12:53 AM EDT (7/16)
Length of Visible Light 15h 59m
Length of Day
14h 53m
First Quarter, 56% of the Moon is Illuminated
Jul 16
First Quarter
Jul 22
Full
Jul 29
Last Quarter
Aug 6
New
Aug 14
First Quarter

Hourly Weather History & Observations

Time (EDT) Temp. Heat Index Dew Point Humidity Pressure Visibility Wind Dir Wind Speed Gust Speed Precip Events Conditions
12:15 AM 75.2 °F - 75.2 °F 100% 30.29 in 10.0 mi Calm Calm - N/A   Clear
12:35 AM 75.2 °F - 75.2 °F 100% 30.30 in 10.0 mi Calm Calm - N/A   Clear
12:54 AM 75.2 °F - 75.2 °F 100% 30.30 in 10.0 mi Calm Calm - N/A   Clear
1:15 AM 75.2 °F - 73.4 °F 94% 30.30 in 10.0 mi Calm Calm - N/A   Clear
1:34 AM 75.2 °F - 73.4 °F 94% 30.30 in 10.0 mi Calm Calm - N/A   Clear
1:55 AM 75.2 °F - 73.4 °F 94% 30.31 in 10.0 mi Calm Calm - N/A   Clear
2:15 AM 75.2 °F - 73.4 °F 94% 30.31 in 10.0 mi Calm Calm - N/A   Scattered Clouds
2:34 AM 75.2 °F - 73.4 °F 94% 30.30 in 10.0 mi Calm Calm - N/A   Clear
2:55 AM 75.2 °F - 73.4 °F 94% 30.30 in 10.0 mi Calm Calm - N/A   Clear
3:15 AM 75.2 °F - 73.4 °F 94% 30.30 in 10.0 mi Calm Calm - N/A   Clear
3:34 AM 75.2 °F - 73.4 °F 94% 30.30 in 10.0 mi Calm Calm - N/A   Clear
3:55 AM 75.2 °F - 73.4 °F 94% 30.30 in 10.0 mi Calm Calm - N/A   Clear
4:15 AM 73.4 °F - 73.4 °F 100% 30.30 in 10.0 mi Calm Calm - N/A   Clear
4:34 AM 75.2 °F - 73.4 °F 94% 30.30 in 10.0 mi Calm Calm - N/A   Clear
4:55 AM 73.4 °F - 73.4 °F 100% 30.30 in 10.0 mi Calm Calm - N/A   Clear
5:15 AM 73.4 °F - 71.6 °F 94% 30.30 in 10.0 mi Calm Calm - N/A   Clear
5:34 AM 73.4 °F - 71.6 °F 94% 30.30 in 10.0 mi Calm Calm - N/A   Clear
5:55 AM 73.4 °F - 71.6 °F 94% 30.30 in 10.0 mi Calm Calm - N/A   Clear
6:15 AM 73.4 °F - 71.6 °F 94% 30.31 in 10.0 mi Calm Calm - N/A   Clear
6:34 AM 73.4 °F - 71.6 °F 94% 30.31 in 10.0 mi Calm Calm - N/A   Clear
6:55 AM 73.4 °F - 71.6 °F 94% 30.32 in 10.0 mi Calm Calm - N/A   Clear
7:15 AM 73.4 °F - 71.6 °F 94% 30.33 in 10.0 mi Calm Calm - N/A   Clear
7:34 AM 75.2 °F - 71.6 °F 89% 30.33 in 10.0 mi Calm Calm - N/A   Clear
7:55 AM 75.2 °F - 73.4 °F 94% 30.34 in 10.0 mi Calm Calm - N/A   Clear
8:15 AM 77.0 °F - 73.4 °F 89% 30.34 in 10.0 mi Calm Calm - N/A   Clear
8:34 AM 78.8 °F - 73.4 °F 83% 30.34 in 10.0 mi West 3.5 mph - N/A   Clear
8:55 AM 80.6 °F 85.4 °F 73.4 °F 79% 30.35 in 10.0 mi West 3.5 mph - N/A   Clear
9:15 AM 80.6 °F 85.4 °F 73.4 °F 79% 30.35 in 10.0 mi WNW 4.6 mph - N/A   Clear
9:35 AM 82.4 °F 88.2 °F 73.4 °F 74% 30.35 in 10.0 mi West 8.1 mph - N/A   Clear
9:55 AM 82.4 °F 88.2 °F 73.4 °F 74% 30.35 in 10.0 mi West 4.6 mph - N/A   Clear
10:14 AM 82.4 °F 88.2 °F 73.4 °F 74% 30.35 in 10.0 mi WNW 5.8 mph - N/A   Clear
10:35 AM 84.2 °F 90.9 °F 73.4 °F 70% 30.35 in 10.0 mi West 4.6 mph - N/A   Clear
10:55 AM 84.2 °F 90.9 °F 73.4 °F 70% 30.35 in 10.0 mi West 6.9 mph - N/A   Clear
11:14 AM 84.2 °F 89.6 °F 71.6 °F 66% 30.34 in 10.0 mi WNW 6.9 mph - N/A   Clear
11:35 AM 84.2 °F 90.9 °F 73.4 °F 70% 30.34 in 10.0 mi WNW 9.2 mph - N/A   Clear
11:54 AM 84.2 °F 89.6 °F 71.6 °F 66% 30.34 in 10.0 mi West 3.5 mph - N/A   Clear
12:15 PM 86.0 °F 91.8 °F 71.6 °F 62% 30.34 in 10.0 mi WNW 5.8 mph - N/A   Clear
12:34 PM 87.8 °F 93.8 °F 71.6 °F 58% 30.34 in 10.0 mi WNW 9.2 mph - N/A   Clear
12:55 PM 86.0 °F 91.8 °F 71.6 °F 62% 30.33 in 10.0 mi Calm Calm - N/A   Clear
1:14 PM 87.8 °F 93.8 °F 71.6 °F 58% 30.33 in 10.0 mi WNW 6.9 mph - N/A   Clear
1:35 PM 87.8 °F 93.8 °F 71.6 °F 58% 30.33 in 10.0 mi WNW 4.6 mph - N/A   Clear
1:55 PM 87.8 °F 92.6 °F 69.8 °F 55% 30.32 in 10.0 mi West 5.8 mph - N/A   Scattered Clouds
2:14 PM 87.8 °F 92.6 °F 69.8 °F 55% 30.32 in 10.0 mi West 4.6 mph - N/A   Scattered Clouds
2:35 PM 87.8 °F 93.8 °F 71.6 °F 58% 30.32 in 10.0 mi WSW 5.8 mph - N/A   Scattered Clouds
2:55 PM 87.8 °F 92.6 °F 69.8 °F 55% 30.32 in 10.0 mi WSW 4.6 mph - N/A   Scattered Clouds
3:14 PM 87.8 °F 92.6 °F 69.8 °F 55% 30.31 in 10.0 mi WSW 6.9 mph - N/A   Scattered Clouds
3:35 PM 87.8 °F 91.4 °F 68.0 °F 52% 30.31 in 10.0 mi SW 4.6 mph - N/A   Scattered Clouds
3:55 PM 89.6 °F 93.4 °F 68.0 °F 49% 30.31 in 10.0 mi WSW 8.1 mph - N/A   Clear
4:14 PM 89.6 °F 94.7 °F 69.8 °F 52% 30.30 in 10.0 mi SW 6.9 mph - N/A   Clear
4:35 PM 89.6 °F 94.7 °F 69.8 °F 52% 30.30 in 10.0 mi West 5.8 mph - N/A   Clear
4:54 PM 89.6 °F 93.4 °F 68.0 °F 49% 30.30 in 10.0 mi WSW 8.1 mph - N/A   Clear
5:15 PM 89.6 °F 94.7 °F 69.8 °F 52% 30.30 in 10.0 mi SW 6.9 mph - N/A   Clear
5:34 PM 89.6 °F 93.4 °F 68.0 °F 49% 30.30 in 10.0 mi SW 8.1 mph - N/A   Clear
5:55 PM 89.6 °F 93.4 °F 68.0 °F 49% 30.30 in 10.0 mi WSW 5.8 mph - N/A   Clear
6:15 PM 89.6 °F 93.4 °F 68.0 °F 49% 30.29 in 10.0 mi West 5.8 mph - N/A   Clear
6:34 PM 87.8 °F 92.6 °F 69.8 °F 55% 30.29 in 10.0 mi WSW 8.1 mph - N/A   Clear
6:55 PM 87.8 °F 92.6 °F 69.8 °F 55% 30.28 in 10.0 mi WSW 6.9 mph - N/A   Clear
7:15 PM 87.8 °F 92.6 °F 69.8 °F 55% 30.28 in 10.0 mi West 6.9 mph - N/A   Clear
7:34 PM 87.8 °F 92.6 °F 69.8 °F 55% 30.28 in 10.0 mi West 4.6 mph - N/A   Clear
7:55 PM 87.8 °F 93.8 °F 71.6 °F 58% 30.28 in 10.0 mi Calm Calm - N/A   Clear
8:15 PM 86.0 °F 93.4 °F 73.4 °F 66% 30.29 in 10.0 mi Calm Calm - N/A   Clear
8:34 PM 84.2 °F 90.9 °F 73.4 °F 70% 30.29 in 10.0 mi Calm Calm - N/A   Clear
8:55 PM 84.2 °F 89.6 °F 71.6 °F 66% 30.29 in 10.0 mi Calm Calm - N/A   Clear
9:15 PM 82.4 °F 88.2 °F 73.4 °F 74% 30.29 in 10.0 mi Calm Calm - N/A   Clear
9:34 PM 80.6 °F 86.2 °F 75.2 °F 84% 30.29 in 10.0 mi Calm Calm - N/A   Clear
9:55 PM 78.8 °F - 73.4 °F 83% 30.29 in 10.0 mi Calm Calm - N/A   Clear
10:14 PM 78.8 °F - 73.4 °F 83% 30.30 in 10.0 mi Calm Calm - N/A   Clear
10:35 PM 77.0 °F - 73.4 °F 89% 30.30 in 10.0 mi Calm Calm - N/A   Clear
10:55 PM 75.2 °F - 73.4 °F 94% 30.30 in 10.0 mi Calm Calm - N/A   Clear
11:14 PM 77.0 °F - 73.4 °F 89% 30.30 in 10.0 mi Calm Calm - N/A   Clear
11:35 PM 77.0 °F - 73.4 °F 89% 30.30 in 10.0 mi Calm Calm - N/A   Clear
11:55 PM 75.2 °F - 73.4 °F 94% 30.30 in 10.0 mi Calm Calm - N/A   Clear